Location: Vigo di Fassa
(46.4167°N, 11.6667°E)
Time: 17:32:13
(UTC+00:00)

Cosmos 1486 Rocket - Pass Details

Date: 03 March 2021
Orbit: 758 x 784 km, 74.1° (Epoch: 15 April)

Event Time Altitude Azimuth Distance (km) Brightness Sun altitude
Rises 17:52:21 0° 337° (NNW) 3,255 7.6 -9.4°
Reaches altitude 10° 17:54:44 10° 337° (NNW) 2,328 6.8 -9.8°
Maximum altitude 18:00:02 83° 251° (WSW) 789 4.1 -10.7°
Drops below altitude 10° 18:05:20 10° 163° (SSE) 2,328 6.3 -11.6°
Sets 18:07:42 0° 163° (SSE) 3,254 7.0 -12.0°
